Location: Sommers-Bausch Observatory
(40.0037°N, 105.2635°W)
Time: 01:21:30
(UTC-06:00)

Amateur Radio Satellites - All Passes

Search period start: 25 May 2015 00:51
Search period end: 26 May 2015 00:51
Location: Sommers-Bausch Observatory, 40.0037°N, 105.2635°W

Satellite Date Start Highest point End Downlink Frequencies (MHz)
Time Altitude Azimuth
ESTCUBE 1 25 May 00:51:46 00:54:06 13° 271° (W) 00:56:13 437.505/2401.250
O/OREOS (USA 219) 25 May 00:53:23 00:54:29 11° 50° (NE) 00:55:48 437.305
BUGSAT 1 25 May 00:57:51 01:01:56 44° 287° (WNW) 01:05:58 437.445
PCSat 25 May 00:58:05 01:02:42 30° 110° (ESE) 01:07:26 145.827
CUBEBUG 1 25 May 01:04:23 01:05:41 11° 272° (W) 01:06:42 437.445
QB50P1 25 May 01:04:48 01:08:24 26° 290° (WNW) 01:11:55 145.935-145.965
POLYITAN 1 25 May 01:05:30 01:09:04 25° 291° (WNW) 01:12:32 437.675
CUSAT 1 25 May 01:10:49 01:18:09 59° 267° (W) 01:23:50 437.405
Cosmos 2499 25 May 01:29:41 01:34:22 19° 65° (ENE) 01:39:20 435.465 / 435.565
NANOSAT C BR1 25 May 01:38:33 01:40:25 12° 295° (WNW) 01:42:06 145.865
Oscar 19 25 May 01:43:13 01:47:25 25° 94° (E) 01:51:42 437.125/150
QB50P2 25 May 01:45:54 01:46:37 10° 297° (WNW) 01:47:05 145.880/145.840
SPROUT 25 May 01:51:43 01:53:27 12° 271° (W) 01:54:57 437.525
VERMONT LUNAR 25 May 01:58:58 02:00:12 12° 147° (SSE) 02:01:31 437.305
ITUPSAT 1 25 May 02:06:28 02:11:12 74° 257° (WSW) 02:16:00 437.325
DANDE 25 May 02:06:41 02:13:28 31° 275° (W) 02:18:59 436.750
ISS 25 May 02:06:56 02:09:32 21° 337° (NNW) 02:12:07 145.825
BEESAT 25 May 02:15:45 02:20:26 58° 260° (W) 02:25:09 436.000
Gurwin Techsat 1B 25 May 02:17:28 02:20:16 15° 89° (E) 02:23:20 435.225
GONETS M04 25 May 02:22:10 02:30:00 36° 274° (W) 02:37:35
SWISSCUBE 25 May 02:24:06 02:28:37 43° 262° (W) 02:33:09 437.505
BEESAT 3 25 May 02:28:08 02:30:10 14° 41° (NE) 02:32:18 437.485
O/OREOS (USA 219) 25 May 02:30:08 02:34:37 83° 247° (WSW) 02:39:05 437.305
STARS 25 May 02:30:47 02:34:12 23° 68° (ENE) 02:37:43 437.465
PCSat 25 May 02:41:00 02:46:02 37° 307° (NW) 02:51:03 145.827
KKS-1 25 May 02:56:11 03:00:38 68° 75° (ENE) 03:05:07 437.445
BEESAT 2 25 May 03:12:47 03:16:18 27° 49° (NE) 03:19:49 435.950
Cosmos 2499 25 May 03:21:18 03:28:20 70° 266° (W) 03:35:25 435.465 / 435.565
Oscar 19 25 May 03:22:09 03:26:53 37° 290° (WNW) 03:31:33 437.125/150
SO-50 25 May 03:25:03 03:29:07 31° 114° (ESE) 03:33:23 436.795
ITAMSAT 1 25 May 03:30:44 03:35:59 79° 102° (ESE) 03:41:13 435.822/435.867
VERMONT LUNAR 25 May 03:33:51 03:36:58 49° 161° (SSE) 03:40:05 437.305
PHONESAT 2.4 25 May 03:36:27 03:39:01 20° 150° (SSE) 03:41:38 2401.200-2431.200
HORYU 2 25 May 03:41:54 03:44:16 15° 90° (E) 03:46:49 437.375
ISS 25 May 03:45:55 03:46:54 11° 357° (N) 03:47:52 145.825
Gurwin Techsat 1B 25 May 03:55:32 04:00:49 66° 286° (WNW) 04:06:04 435.225
BEESAT 3 25 May 04:04:35 04:08:40 72° 241° (WSW) 04:12:40 437.485
STARS 25 May 04:06:27 04:10:29 33° 263° (W) 04:14:30 437.465
MOZHAYETS 4 25 May 04:09:42 04:13:43 31° 70° (ENE) 04:17:47
AO-7 25 May 04:16:27 04:23:46 34° 96° (E) 04:31:14 29.400- 29.500
AIST 2 25 May 04:26:07 04:30:11 44° 53° (NE) 04:34:11 435.215
KKS-1 25 May 04:36:40 04:37:50 11° 272° (W) 04:38:42 437.445
BEESAT 2 25 May 04:50:49 04:54:21 28° 246° (WSW) 04:57:47 435.950
SO-50 25 May 05:05:23 05:09:38 32° 312° (NW) 05:13:59 436.795
JAS-2 25 May 05:05:42 05:10:55 86° 285° (WNW) 05:16:13 435.910
VERMONT LUNAR 25 May 05:10:55 05:14:08 80° 357° (N) 05:17:20 437.305
ITAMSAT 1 25 May 05:12:17 05:14:54 14° 298° (WNW) 05:17:16 435.822/435.867
PHONESAT 2.4 25 May 05:13:22 05:16:49 68° 166° (SSE) 05:20:16 2401.200-2431.200
HORYU 2 25 May 05:16:58 05:21:16 49° 287° (WNW) 05:25:30 437.375
ISS 25 May 05:22:16 05:24:23 16° 17° (NNE) 05:26:31 145.825
CUBESAT XI-V 25 May 05:42:47 05:46:26 24° 69° (ENE) 05:50:12 437.345
MOZHAYETS 4 25 May 05:47:13 05:50:59 24° 266° (W) 05:54:39
AIST 2 25 May 06:05:40 06:08:27 17° 249° (WSW) 06:11:04 435.215
AO-7 25 May 06:08:49 06:16:54 54° 294° (WNW) 06:24:55 29.400- 29.500
Cosmos 2491 25 May 06:09:20 06:17:03 34° 69° (ENE) 06:24:55 435.465 / 435.565
STRAND 1 25 May 06:10:07 06:13:58 23° 66° (ENE) 06:17:57 437.568
PRISM 25 May 06:24:09 06:27:39 29° 70° (ENE) 06:31:14 437.425
VERMONT LUNAR 25 May 06:48:10 06:51:21 70° 193° (SSW) 06:54:32 437.305
M-CUBED/EXP-1 PRIME 25 May 06:49:14 06:53:20 44° 69° (ENE) 06:57:09 437.505
PHONESAT 2.4 25 May 06:51:28 06:54:57 80° 1° (N) 06:58:26 2401.200-2431.200
ISS 25 May 06:58:01 07:01:17 69° 37° (NE) 07:04:32 145.825
AUBIESAT-1 25 May 06:59:22 07:03:29 50° 69° (ENE) 07:07:20 437.475
YUBILEINY 25 May 07:01:35 07:08:44 31° 85° (E) 07:16:07 435.215
CUTE-I 25 May 07:07:12 07:12:27 54° 100° (E) 07:17:43 437.470
CUBESAT XI-V 25 May 07:19:38 07:23:45 32° 264° (W) 07:27:52 437.345
Cubesat XI-IV 25 May 07:27:06 07:32:29 84° 101° (ESE) 07:37:53 437.490
RS-15 25 May 07:45:52 07:51:54 18° 101° (E) 07:58:47 29.354- 29.394
STRAND 1 25 May 07:48:07 07:52:57 42° 262° (W) 07:57:46 437.568
PRISM 25 May 07:59:59 08:03:09 21° 266° (W) 08:06:14 437.425
AO-7 25 May 08:05:04 08:08:01 12° 314° (NW) 08:10:28 29.400- 29.500
Cosmos 2491 25 May 08:05:49 08:14:20 53° 269° (W) 08:22:41 435.465 / 435.565
AIST 1 25 May 08:08:20 08:12:37 52° 79° (E) 08:16:55
BRITE-PL 25 May 08:22:00 08:26:56 31° 93° (E) 08:31:46 437.365/2234.400
M-CUBED/EXP-1 PRIME 25 May 08:25:40 08:28:18 15° 262° (W) 08:30:43 437.505
VERMONT LUNAR 25 May 08:25:51 08:28:15 19° 209° (SSW) 08:30:37 437.305
PHONESAT 2.4 25 May 08:29:38 08:33:02 54° 199° (SSW) 08:36:26 2401.200-2431.200
GOMX 1 25 May 08:35:10 08:39:32 25° 91° (E) 08:43:49 467.674
ISS 25 May 08:35:58 08:37:21 12° 230° (SW) 08:38:37 145.825
AUBIESAT-1 25 May 08:36:16 08:38:28 13° 263° (W) 08:40:23 437.475
CUTE-I 25 May 08:48:18 08:52:10 20° 296° (WNW) 08:55:53 437.470
HO-68 25 May 08:51:53 08:57:53 29° 94° (E) 09:04:00 435.675
AAUSAT CUBESAT 2 25 May 08:55:43 08:56:15 10° 88° (E) 08:57:04 437.432
YUBILEINY 25 May 08:56:33 09:05:09 56° 283° (WNW) 09:13:43 435.215
Cubesat XI-IV 25 May 09:09:21 09:11:58 13° 299° (WNW) 09:14:18 437.490
CANX-2 25 May 09:28:30 09:32:38 54° 99° (E) 09:36:45 2200.000
Cosmos 2504 25 May 09:30:47 09:37:19 27° 86° (E) 09:43:48 435.465 / 435.565
CUTE 1.7 + AOD 2 25 May 09:32:21 09:36:29 54° 99° (E) 09:40:36 437.475
Oscar 11 25 May 09:34:19 09:36:30 14° 90° (E) 09:38:54 145.826/435.025
TIGRISAT 25 May 09:37:26 09:40:06 16° 65° (ENE) 09:42:57 435.000
CINEMA 3 25 May 09:37:42 09:41:53 30° 94° (E) 09:45:55 145.822/145.860
DOVE 4 25 May 09:44:54 09:50:05 78° 101° (ESE) 09:54:59 437.250
PCSat 25 May 09:46:19 09:50:38 24° 47° (NE) 09:55:02 145.827
AIST 1 25 May 09:47:57 09:49:51 12° 274° (W) 09:51:32
RS-15 25 May 09:51:52 10:02:44 83° 119° (ESE) 10:13:56 29.354- 29.394
UNISAT 6 25 May 09:55:49 09:59:33 24° 69° (ENE) 10:03:21 437.425
UWE-3 25 May 09:57:50 10:00:54 19° 91° (E) 10:04:01 435.000/436.395/437.385
SEEDS 25 May 09:58:01 10:02:12 88° 102° (ESE) 10:06:22 437.485
BRITE-PL 25 May 10:00:17 10:05:28 36° 290° (WNW) 10:10:24 437.365/2234.400
PHONESAT 2.4 25 May 10:08:47 10:10:44 14° 213° (SSW) 10:12:36 2401.200-2431.200
GOMX 1 25 May 10:12:45 10:17:47 40° 290° (WNW) 10:22:34 467.674
FUNcube-1 25 May 10:12:56 10:16:10 21° 92° (E) 10:19:27 145.935
COMPASS 1 25 May 10:14:24 10:18:33 74° 284° (WNW) 10:22:40 437.405
BUGSAT 1 25 May 10:15:24 10:15:57 10° 64° (ENE) 10:16:46 437.445
QB50P1 25 May 10:21:40 10:24:40 19° 68° (ENE) 10:27:47 145.935-145.965
POLYITAN 1 25 May 10:22:29 10:25:34 20° 68° (ENE) 10:28:48 437.675
AAUSAT CUBESAT 2 25 May 10:28:16 10:32:21 59° 285° (WNW) 10:36:23 437.432
ANTELSAT 25 May 10:38:01 10:42:41 67° 75° (ENE) 10:47:20 437.575/2403.000
HO-68 25 May 10:39:02 10:45:56 52° 292° (WNW) 10:52:46 435.675
CUBEBUG 2 25 May 10:41:52 10:46:22 75° 101° (ESE) 10:50:42 437.445
50 SAT 25 May 10:50:46 10:52:23 13° 90° (E) 10:54:12 437.505
ZACube-1 25 May 10:51:53 10:56:12 60° 100° (E) 11:00:23 437.345
NANOSAT C BR1 25 May 10:52:36 10:56:35 40° 72° (ENE) 11:00:38 145.865
UKube-1 25 May 10:57:59 11:01:47 29° 96° (E) 11:05:36 .
QB50P2 25 May 10:59:02 11:03:10 50° 74° (ENE) 11:07:22 145.880/145.840
HUMSAT D 25 May 11:01:43 11:05:30 33° 96° (E) 11:09:15 437.325/437.525
DX 1 25 May 11:03:44 11:07:48 37° 98° (E) 11:11:53 434.975-435.025
CANX-2 25 May 11:06:06 11:08:09 13° 294° (WNW) 11:10:00 2200.000
ESTCUBE 1 25 May 11:07:53 11:09:30 12° 89° (E) 11:11:22 437.505/2401.250
DELFI C3 25 May 11:08:10 11:12:09 63° 285° (WNW) 11:16:06 145.870
Oscar 11 25 May 11:08:52 11:13:01 47° 287° (WNW) 11:17:08 145.826/435.025
CUTE 1.7 + AOD 2 25 May 11:09:56 11:12:00 13° 294° (WNW) 11:13:52 437.475
VELOX 1 25 May 11:10:59 11:14:26 22° 94° (E) 11:17:59 145.980
POPSAT HIP 1 25 May 11:11:40 11:15:54 69° 75° (ENE) 11:20:12 437.405
TIGRISAT 25 May 11:11:49 11:16:27 56° 261° (W) 11:21:03 435.000
CINEMA 3 25 May 11:14:59 11:18:58 26° 292° (WNW) 11:22:44 145.822/145.860
DUCHIFAT 1 25 May 11:15:10 11:19:24 73° 77° (ENE) 11:23:42 145.980
CUBEBUG 1 25 May 11:15:57 11:17:45 13° 89° (E) 11:19:48 437.445
Cosmos 2504 25 May 11:22:02 11:30:20 59° 282° (WNW) 11:38:05 435.465 / 435.565
DOVE 4 25 May 11:24:39 11:27:09 13° 298° (WNW) 11:29:21 437.250
PCSat 25 May 11:29:07 11:34:24 53° 246° (WSW) 11:39:37 145.827
UNISAT 6 25 May 11:31:54 11:36:11 33° 264° (W) 11:40:24 437.425
UWE-3 25 May 11:33:32 11:37:37 36° 289° (WNW) 11:41:32 435.000/436.395/437.385
AISAT 25 May 11:41:16 11:45:39 49° 99° (E) 11:50:01 437.250
BUGSAT 1 25 May 11:46:47 11:50:53 70° 258° (WSW) 11:55:06 437.445
FUNcube-1 25 May 11:48:43 11:52:36 32° 289° (WNW) 11:56:21 145.935
QB50P1 25 May 11:56:20 12:00:18 36° 263° (W) 12:04:16 145.935-145.965
SO-50 25 May 11:56:49 12:01:03 28° 46° (NE) 12:05:19 436.795
POLYITAN 1 25 May 11:57:19 12:01:17 35° 263° (W) 12:05:14 437.675
SPROUT 25 May 12:02:50 12:03:37 11° 88° (E) 12:04:42 437.525
RS-15 25 May 12:06:53 12:16:35 33° 326° (NW) 12:26:23 29.354- 29.394
ANTELSAT 25 May 12:18:03 12:19:58 12° 272° (W) 12:21:38 437.575/2403.000
CUBEBUG 2 25 May 12:21:18 12:22:27 11° 297° (WNW) 12:23:20 437.445
50 SAT 25 May 12:23:42 12:27:24 42° 287° (WNW) 12:31:03 437.505
NANOSAT C BR1 25 May 12:29:51 12:32:39 16° 269° (W) 12:35:18 145.865
ZACube-1 25 May 12:30:09 12:32:04 12° 296° (WNW) 12:33:47 437.345
TISAT 1 25 May 12:31:41 12:34:22 17° 91° (E) 12:37:12 437.305
CUSAT 1 25 May 12:32:21 12:38:15 29° 85° (E) 12:45:05 437.405
UKube-1 25 May 12:34:15 12:37:48 24° 292° (WNW) 12:41:16 .
QB50P2 25 May 12:37:11 12:39:26 13° 270° (W) 12:41:27 145.880/145.840
HUMSAT D 25 May 12:38:00 12:41:02 19° 292° (WNW) 12:43:57 437.325/437.525
DX 1 25 May 12:40:34 12:43:50 20° 293° (WNW) 12:46:58 434.975-435.025
ESTCUBE 1 25 May 12:42:22 12:46:51 62° 285° (WNW) 12:51:20 437.505/2401.250
VELOX 1 25 May 12:47:02 12:51:04 33° 290° (WNW) 12:55:03 145.980
CUBEBUG 1 25 May 12:50:10 12:54:33 57° 286° (WNW) 12:58:53 437.445
Oscar 19 25 May 12:59:14 13:03:55 35° 69° (ENE) 13:08:39 437.125/150
ITAMSAT 1 25 May 13:11:47 13:14:20 14° 62° (ENE) 13:17:07 435.822/435.867
AISAT 25 May 13:19:02 13:21:52 16° 295° (WNW) 13:24:32 437.250
GONETS M04 25 May 13:24:37 13:33:08 57° 91° (E) 13:41:45
DANDE 25 May 13:30:16 13:36:56 59° 93° (E) 13:45:05 436.750
SPROUT 25 May 13:35:55 13:40:13 64° 285° (WNW) 13:44:29 437.525
SO-50 25 May 13:37:06 13:41:46 40° 244° (WSW) 13:46:17 436.795
Gurwin Techsat 1B 25 May 13:37:33 13:41:36 23° 66° (ENE) 13:45:48 435.225
TISAT 1 25 May 14:06:21 14:10:22 40° 288° (WNW) 14:14:20 437.305
Cosmos 2499 25 May 14:07:05 14:11:35 17° 83° (E) 14:16:23 435.465 / 435.565
ITUPSAT 1 25 May 14:08:04 14:12:14 30° 96° (E) 14:16:26 437.325
CUSAT 1 25 May 14:13:21 14:20:25 58° 285° (WNW) 14:28:34 437.405
BEESAT 25 May 14:16:43 14:21:08 37° 97° (E) 14:25:34 436.000
SWISSCUBE 25 May 14:24:46 14:29:25 49° 99° (E) 14:34:04 437.505
RS-15 25 May 14:26:29 14:33:53 19° 360° (N) 14:41:30 29.354- 29.394
Oscar 19 25 May 14:38:55 14:43:20 27° 266° (W) 14:47:41 437.125/150
HORYU 2 25 May 14:40:14 14:42:26 14° 64° (ENE) 14:44:50 437.375
ITAMSAT 1 25 May 14:48:07 14:53:17 74° 258° (WSW) 14:58:29 435.822/435.867
KKS-1 25 May 14:49:40 14:51:52 14° 90° (E) 14:54:18 437.445
O/OREOS (USA 219) 25 May 15:05:28 15:07:04 12° 100° (E) 15:08:55 437.305
DANDE 25 May 15:14:37 15:20:51 30° 296° (WNW) 15:27:49 436.750
AO-7 25 May 15:14:40 15:22:18 45° 63° (ENE) 15:30:05 29.400- 29.500
Gurwin Techsat 1B 25 May 15:16:16 15:21:20 44° 262° (W) 15:26:25 435.225
JAS-2 25 May 15:16:30 15:22:39 40° 70° (ENE) 15:28:15 435.910
GONETS M04 25 May 15:22:45 15:30:30 32° 292° (WNW) 15:38:04
ITUPSAT 1 25 May 15:45:58 15:50:04 28° 291° (WNW) 15:54:06 437.325
BEESAT 25 May 15:55:01 15:58:48 23° 293° (WNW) 16:02:27 436.000
Cosmos 2499 25 May 15:55:45 16:04:02 85° 278° (W) 16:11:42 435.465 / 435.565
STARS 25 May 15:56:25 16:00:42 46° 99° (E) 16:04:56 437.465
CUSAT 1 25 May 16:02:12 16:05:19 12° 308° (NW) 16:07:58 437.405
SWISSCUBE 25 May 16:03:41 16:06:56 18° 295° (WNW) 16:10:02 437.505
HORYU 2 25 May 16:14:13 16:18:39 58° 259° (W) 16:23:05 437.375
KKS-1 25 May 16:24:31 16:28:54 53° 287° (WNW) 16:33:14 437.445
RS-15 25 May 16:41:29 16:51:21 32° 33° (NNE) 17:01:49 29.354- 29.394
O/OREOS (USA 219) 25 May 16:41:33 16:46:02 61° 294° (WNW) 16:50:29 437.305
CUTE-I 25 May 16:53:10 16:54:24 11° 59° (ENE) 16:55:57 437.470
JAS-2 25 May 17:01:40 17:07:48 33° 264° (W) 17:13:14 435.910
AO-7 25 May 17:07:25 17:15:10 42° 262° (W) 17:22:53 29.400- 29.500
Cubesat XI-IV 25 May 17:11:06 17:14:17 17° 63° (ENE) 17:17:42 437.490
YUBILEINY 25 May 17:13:28 17:17:07 14° 56° (ENE) 17:21:24 435.215
STARS 25 May 17:33:56 17:36:48 17° 294° (WNW) 17:39:31 437.465
MOZHAYETS 4 25 May 17:41:50 17:46:26 83° 104° (ESE) 17:50:59
Cosmos 2499 25 May 17:53:47 17:58:25 15° 298° (WNW) 18:02:25 435.465 / 435.565
BEESAT 3 25 May 17:57:18 18:00:31 23° 113° (ESE) 18:03:52 437.485
AIST 2 25 May 18:26:29 18:27:27 11° 109° (ESE) 18:28:41 435.215
CUTE-I 25 May 18:28:26 18:33:44 83° 77° (ENE) 18:39:06 437.470
BEESAT 2 25 May 18:43:03 18:47:05 61° 119° (ESE) 18:51:11 435.950
Cubesat XI-IV 25 May 18:48:39 18:53:55 64° 258° (WSW) 18:59:14 437.490
RS-15 25 May 18:53:50 19:05:33 89° 234° (SW) 19:17:44 29.354- 29.394
YUBILEINY 25 May 19:07:16 19:15:58 72° 80° (E) 19:24:39 435.215
Cosmos 2491 25 May 19:09:43 19:17:32 39° 87° (E) 19:25:34 435.465 / 435.565
CUBESAT XI-V 25 May 19:16:13 19:20:54 66° 101° (E) 19:25:34 437.345
HO-68 25 May 19:20:58 19:26:03 22° 59° (ENE) 19:31:22 435.675
MOZHAYETS 4 25 May 19:22:24 19:23:03 10° 297° (WNW) 19:23:26
BRITE-PL 25 May 19:31:56 19:36:18 31° 68° (ENE) 19:41:02 437.365/2234.400
BEESAT 3 25 May 19:34:42 19:38:23 31° 310° (NW) 19:42:05 437.485
PRISM 25 May 19:41:41 19:45:45 52° 100° (E) 19:49:49 437.425
GOMX 1 25 May 19:42:19 19:46:26 26° 67° (ENE) 19:50:51 467.674
STRAND 1 25 May 19:58:51 20:04:00 68° 102° (ESE) 20:09:08 437.568
AIST 2 25 May 20:01:17 20:05:32 70° 303° (WNW) 20:09:49 435.215
M-CUBED/EXP-1 PRIME 25 May 20:06:00 20:08:57 30° 102° (ESE) 20:11:56 437.505
CUTE-I 25 May 20:12:50 20:14:37 11° 273° (W) 20:16:00 437.470
AUBIESAT-1 25 May 20:15:29 20:18:32 34° 103° (ESE) 20:21:36 437.475
CANX-2 25 May 20:20:49 20:24:41 35° 72° (ENE) 20:28:37 2200.000
BEESAT 2 25 May 20:23:02 20:25:37 15° 317° (NW) 20:28:05 435.950
CUTE 1.7 + AOD 2 25 May 20:24:36 20:28:29 35° 72° (ENE) 20:32:23 437.475
Oscar 11 25 May 20:29:58 20:31:10 11° 64° (ENE) 20:32:37 145.826/435.025
AIST 1 25 May 20:37:24 20:41:08 31° 91° (E) 20:44:58
CINEMA 3 25 May 20:38:19 20:42:31 29° 69° (ENE) 20:46:51 145.822/145.860
DOVE 4 25 May 20:48:54 20:53:57 72° 75° (ENE) 20:59:14 437.250
SEEDS 25 May 20:49:10 20:53:18 55° 74° (ENE) 20:57:27 437.485
UWE-3 25 May 20:54:36 20:57:32 17° 66° (ENE) 21:00:37 435.000/436.395/437.385
CUBESAT XI-V 25 May 20:55:30 20:57:51 13° 296° (WNW) 21:00:00 437.345
COMPASS 1 25 May 21:04:39 21:08:48 67° 76° (ENE) 21:12:58 437.405
YUBILEINY 25 May 21:05:33 21:12:03 23° 278° (W) 21:18:09 435.215
HO-68 25 May 21:05:58 21:13:09 75° 256° (WSW) 21:20:22 435.675
Cosmos 2491 25 May 21:05:59 21:14:21 45° 287° (WNW) 21:22:41 435.465 / 435.565
RS-15 25 May 21:08:11 21:16:49 23° 257° (WSW) 21:24:57 29.354- 29.394
FUNcube-1 25 May 21:08:22 21:11:22 18° 67° (ENE) 21:14:30 145.935
BRITE-PL 25 May 21:10:15 21:14:45 32° 267° (W) 21:19:32 437.365/2234.400
Cosmos 2504 25 May 21:15:29 21:22:22 46° 75° (ENE) 21:29:15 435.465 / 435.565
AAUSAT CUBESAT 2 25 May 21:17:59 21:22:09 82° 77° (ENE) 21:26:20 437.432
PRISM 25 May 21:18:45 21:20:49 13° 295° (WNW) 21:22:42 437.425
GOMX 1 25 May 21:19:33 21:24:20 40° 264° (W) 21:29:21 467.674
CUBEBUG 2 25 May 21:38:43 21:43:24 59° 74° (ENE) 21:48:06 437.445
STRAND 1 25 May 21:39:42 21:42:42 15° 297° (WNW) 21:45:29 437.568
M-CUBED/EXP-1 PRIME 25 May 21:41:53 21:43:37 13° 298° (WNW) 21:45:15 437.505
AIST 2 25 May 21:44:21 21:44:59 10° 323° (NW) 21:45:25 435.215
ZACube-1 25 May 21:46:44 21:51:06 45° 73° (ENE) 21:55:30 437.345
AUBIESAT-1 25 May 21:51:41 21:53:05 12° 298° (WNW) 21:54:21 437.475
UKube-1 25 May 21:52:32 21:55:57 24° 68° (ENE) 21:59:28 .
HUMSAT D 25 May 21:53:05 21:56:30 24° 69° (ENE) 21:59:58 437.325/437.525
DELFI C3 25 May 21:54:32 21:58:32 69° 76° (ENE) 22:02:33 145.870
CANX-2 25 May 21:57:42 22:00:46 18° 268° (W) 22:03:42 2200.000
DX 1 25 May 21:58:52 22:02:38 30° 70° (ENE) 22:06:29 434.975-435.025
CUTE 1.7 + AOD 2 25 May 22:01:27 22:04:32 19° 268° (W) 22:07:29 437.475
Oscar 11 25 May 22:02:32 22:06:51 69° 259° (W) 22:11:11 145.826/435.025
ESTCUBE 1 25 May 22:08:04 22:09:16 11° 63° (ENE) 22:10:43 437.505/2401.250
VELOX 1 25 May 22:08:29 22:11:34 19° 67° (ENE) 22:14:48 145.980
CUBEBUG 1 25 May 22:13:14 22:13:54 10° 63° (ENE) 22:14:48 437.445
CINEMA 3 25 May 22:15:09 22:19:37 32° 265° (W) 22:24:06 145.822/145.860
AIST 1 25 May 22:15:44 22:18:54 19° 288° (WNW) 22:21:59
SEEDS 25 May 22:27:51 22:29:31 12° 271° (W) 22:30:55 437.485
UWE-3 25 May 22:29:07 22:33:42 51° 261° (W) 22:38:16 435.000/436.395/437.385
DOVE 4 25 May 22:29:48 22:32:22 13° 274° (W) 22:34:40 437.250
ANTELSAT 25 May 22:32:38 22:34:46 14° 89° (E) 22:37:05 437.575/2403.000
AISAT 25 May 22:38:24 22:42:33 41° 72° (ENE) 22:46:46 437.250
FUNcube-1 25 May 22:42:57 22:47:22 46° 262° (W) 22:51:47 145.935
POPSAT HIP 1 25 May 22:59:46 23:01:12 12° 89° (E) 23:02:54 437.405
HO-68 25 May 22:59:58 23:02:15 11° 275° (W) 23:03:54 435.675
DUCHIFAT 1 25 May 23:02:35 23:04:16 12° 89° (E) 23:06:11 145.980
TIGRISAT 25 May 23:04:46 23:08:38 30° 96° (E) 23:12:27 435.000
50 SAT 25 May 23:07:05 23:11:06 88° 256° (WSW) 23:15:07 437.505
Cosmos 2504 25 May 23:09:26 23:15:29 29° 274° (W) 23:21:21 435.465 / 435.565
CUSAT 1 25 May 23:12:37 23:17:50 21° 60° (ENE) 23:22:32 437.405
CUBEBUG 2 25 May 23:17:52 23:20:31 14° 271° (W) 23:22:55 437.445
UNISAT 6 25 May 23:24:19 23:28:37 53° 99° (E) 23:32:50 437.425
TISAT 1 25 May 23:24:29 23:26:12 13° 65° (ENE) 23:28:09 437.305
ZACube-1 25 May 23:24:35 23:27:43 17° 269° (W) 23:30:40 437.345
UKube-1 25 May 23:28:10 23:31:59 29° 264° (W) 23:35:45 .
HUMSAT D 25 May 23:28:18 23:32:07 29° 265° (W) 23:35:54 437.325/437.525
BUGSAT 1 25 May 23:30:36 23:33:31 18° 92° (E) 23:36:32 437.445
DX 1 25 May 23:35:23 23:38:55 23° 266° (W) 23:42:22 434.975-435.025
GONETS M04 25 May 23:36:19 23:43:19 27° 66° (ENE) 23:50:32
ISS 25 May 23:36:56 23:39:46 28° 135° (SE) 23:42:38 145.825
ESTCUBE 1 25 May 23:41:07 23:45:35 74° 258° (WSW) 23:50:05 437.505/2401.250
QB50P1 25 May 23:41:57 23:45:55 36° 97° (E) 23:49:52 145.935-145.965
POLYITAN 1 25 May 23:43:12 23:47:12 38° 97° (E) 23:51:12 437.675
VELOX 1 25 May 23:43:43 23:47:52 39° 262° (W) 23:52:03 145.980
CUBEBUG 1 25 May 23:45:21 23:49:42 76° 259° (W) 23:54:05 437.445
ANTELSAT 26 May 00:07:41 00:11:57 49° 287° (WNW) 00:16:06 437.575/2403.000
NANOSAT C BR1 26 May 00:13:33 00:17:52 85° 103° (ESE) 00:22:07 145.865
DANDE 26 May 00:13:58 00:21:41 49° 72° (ENE) 00:27:54 436.750
AISAT 26 May 00:16:17 00:19:21 18° 268° (W) 00:22:18 437.250
QB50P2 26 May 00:20:38 00:24:57 77° 284° (WNW) 00:29:11 145.880/145.840
PCSat 26 May 00:28:07 00:32:05 22° 108° (ESE) 00:36:15 145.827
SPROUT 26 May 00:29:01 00:33:21 89° 67° (ENE) 00:37:43 437.525
POPSAT HIP 1 26 May 00:33:18 00:37:32 57° 286° (WNW) 00:41:42 437.405
DUCHIFAT 1 26 May 00:36:18 00:40:29 53° 286° (WNW) 00:44:38 145.980
TIGRISAT 26 May 00:41:45 00:45:15 23° 292° (WNW) 00:48:36 435.000
